星链-6251 (STARLINK-6251 )

导读 | 星芒AI

STARLINK-6251 是 SpaceX Starlink 卫星互联网项目中的一颗低轨卫星,属于第62批发射的星链卫星之一。该卫星运行在约550公里高的近地轨道,旨在为全球用户提供高速互联网服务。Starlink 项目通过部署大量卫星,构建覆盖全球的宽带网络,特别服务于偏远和网络基础设施薄弱的地区。STARLINK-6251 采用先进推进和通信技术,具备自动避障功能,有助于提升网络稳定性和卫星安全性。该项目持续扩展,推动全球互联网接入的普及与革新。

基本信息
目录编号:
57087
目录名称:
STARLINK-6251
国际标识:
2023-088AR
轨道中心:
EARTH
卫星名称:
星链-6251
卫星全名:
星链-6251 (STARLINK-6251 )
卫星状态:
在轨 (已飞行865 天)
发射日期:
2023-06-22 UTC
国别 :
美国 (US)
星等 :
--
轨道信息
数据来源 国际轨道数据
星历时间: 2025-11-02T09:46:31+0800
1天前
查看轨道信息
半长轴: 6937.223km
偏心率: 0.000114
轨道倾角: 43.003°
近地点辐角 271.464°
升交点赤经 67.837°
平近点角 88.607°
近地点: 558.297km
远地点: 559.879km
周期: 95.838分钟
每日圈数: 15.02534
详细信息
固有亮度:
5
最大亮度:
2.4
卫星平台:
Starlink v1.5
覆盖范围:
全球
运营商:
太空探索技术公司
运营商所在国:
美国
制造商(研发单位):
太空探索技术公司
制造商所在国:
美国
使用方式:
暂无
卫星简介
星链(Starlink)计划是由太空探索技术公司(SpaceX)提出的一个巨型低轨卫星互联网星座项目,计划在2019年至2024年间在太空搭建由约1.2万颗卫星组成的“星链”网络,其中1584颗将部署在地球上空550千米处的近地轨道,并从2020年开始工作。该卫星仍在工作。
2D轨道图
3D轨道图
轨道高度分析图
轨道倾角分析图
轨道综合分析图
查看轨道综合分析图